DW1520 Weather Reports


time (UTC)temp
C
wind
direction
speed
KPH
gust
KPH
rain 1hr
cm
rain 24hr
cm
rain mn
cm
humidity
%
barometer
mb
20260507092506 0 302 0.0 0.0 0.00 0.00 0.00 82 1012.6
20260507092006 0 302 0.0 0.0 0.00 0.00 0.00 82 1012.6
20260507091505 0 302 0.0 0.0 0.00 0.00 0.00 82 1012.6
20260507090505 0 302 0.0 0.0 0.00 0.00 0.00 81 1012.7
20260507090006 0 302 0.0 0.0 0.00 0.00 0.00 81 1012.6
20260507085506 0 302 0.0 0.0 0.00 0.00 0.00 81 1012.6
20260507085006 0 302 0.0 0.0 0.00 0.00 0.00 82 1012.7
20260507084006 0 302 0.0 0.0 0.00 0.00 0.00 81 1012.7
20260507083007 0 302 0.0 0.0 0.00 0.00 0.00 82 1012.8
20260507082505 0 302 0.0 1.6 0.00 0.00 0.00 81 1012.9
20260507082005 0 302 0.0 0.0 0.00 0.00 0.00 81 1012.9
20260507081506 0 302 0.0 0.0 0.00 0.00 0.00 81 1012.9
20260507081006 0 302 0.0 0.0 0.00 0.00 0.00 80 1013.0
20260507080506 0 302 0.0 0.0 0.00 0.00 0.00 80 1013.0
20260507080005 0 302 0.0 0.0 0.00 0.00 0.00 80 1012.9
20260507075505 0 302 0.0 0.0 0.00 0.00 0.00 79 1012.9
20260507075005 0 302 0.0 0.0 0.00 0.00 0.00 80 1012.9
20260507074506 0 302 0.0 0.0 0.00 0.00 0.00 79 1013.0
20260507073505 1 302 0.0 0.0 0.00 0.00 0.00 79 1013.1
20260507073006 1 302 0.0 0.0 0.00 0.00 0.00 79 1013.2
20260507071506 1 302 0.0 0.0 0.00 0.00 0.00 81 1013.3
20260507071005 1 302 0.0 0.0 0.00 0.00 0.00 81 1013.3
20260507070506 1 302 0.0 0.0 0.00 0.00 0.00 81 1013.3
20260507070010 1 302 0.0 0.0 0.00 0.00 0.00 82 1013.4
20260507065006 1 302 0.0 0.0 0.00 0.00 0.00 83 1013.5
20260507064505 0 302 0.0 0.0 0.00 0.00 0.00 83 1013.6
20260507064006 0 302 0.0 0.0 0.00 0.00 0.00 83 1013.6
20260507063506 0 302 0.0 0.0 0.00 0.00 0.00 84 1013.6
20260507063005 0 302 0.0 0.0 0.00 0.00 0.00 85 1013.6
20260507062506 0 302 0.0 0.0 0.00 0.00 0.00 85 1013.6
20260507062005 0 302 0.0 0.0 0.00 0.00 0.00 85 1013.6
20260507061006 0 302 0.0 0.0 0.00 0.00 0.00 84 1013.7
20260507060505 0 302 0.0 0.0 0.00 0.00 0.00 85 1013.7
20260507055506 0 302 0.0 0.0 0.00 0.00 0.00 85 1013.7
20260507055006 0 302 0.0 0.0 0.00 0.00 0.00 85 1013.7
20260507054505 0 302 0.0 0.0 0.00 0.00 0.00 85 1013.7
20260507054005 0 302 0.0 0.0 0.00 0.00 0.00 84 1013.8
20260507053505 0 302 0.0 0.0 0.00 0.00 0.00 84 1013.8
20260507053005 0 302 0.0 0.0 0.00 0.00 0.00 84 1013.8
20260507052506 0 302 0.0 0.0 0.00 0.00 0.00 83 1013.9
20260507052006 0 302 0.0 0.0 0.00 0.00 0.00 82 1013.9
20260507051505 0 302 0.0 0.0 0.00 0.00 0.00 81 1013.9
20260507051006 0 302 0.0 0.0 0.00 0.00 0.00 81 1013.9
20260507050505 0 302 0.0 0.0 0.00 0.00 0.00 80 1013.9
20260507045505 1 302 0.0 0.0 0.00 0.00 0.00 79 1013.9
20260507045005 1 302 0.0 0.0 0.00 0.00 0.00 79 1013.9
20260507044505 1 302 0.0 0.0 0.00 0.00 0.00 78 1013.9
20260507044005 1 302 0.0 0.0 0.00 0.00 0.00 78 1014.0
20260507043506 1 302 0.0 0.0 0.00 0.00 0.00 75 1014.0
20260507042505 1 302 0.0 0.0 0.00 0.00 0.00 74 1014.0
20260507042006 1 302 0.0 0.0 0.00 0.00 0.00 74 1014.0
20260507041506 1 302 0.0 0.0 0.00 0.00 0.00 73 1014.1
20260507041006 1 302 0.0 0.0 0.00 0.00 0.00 73 1014.1
20260507040505 1 302 0.0 0.0 0.00 0.00 0.00 73 1014.1
20260507035506 1 302 0.0 0.0 0.00 0.00 0.00 73 1014.0
20260507035006 1 302 0.0 0.0 0.00 0.00 0.00 72 1014.1
20260507034506 2 302 0.0 0.0 0.00 0.00 0.00 72 1014.1
20260507034006 2 302 0.0 0.0 0.00 0.00 0.00 71 1014.1
20260507033506 2 302 0.0 0.0 0.00 0.00 0.00 70 1014.2
20260507033006 2 302 0.0 0.0 0.00 0.00 0.00 70 1014.3
20260507032006 2 302 0.0 0.0 0.00 0.00 0.00 69 1014.3
20260507031505 2 302 0.0 0.0 0.00 0.00 0.00 69 1014.3
20260507031006 2 302 0.0 0.0 0.00 0.00 0.00 68 1014.3
20260507030506 2 302 0.0 0.0 0.00 0.00 0.00 68 1014.4
20260507030005 2 302 0.0 0.0 0.00 0.00 0.00 68 1014.4
20260507025505 3 302 0.0 0.0 0.00 0.00 0.00 67 1014.4
20260507025006 3 302 0.0 0.0 0.00 0.00 0.00 67 1014.4
20260507024506 3 302 0.0 0.0 0.00 0.00 0.00 66 1014.6
20260507024005 3 302 0.0 0.0 0.00 0.00 0.00 65 1014.5
20260507023505 3 302 0.0 0.0 0.00 0.00 0.00 65 1014.6
20260507023006 3 302 0.0 0.0 0.00 0.00 0.00 66 1014.6
20260507022506 3 302 0.0 0.0 0.00 0.00 0.00 64 1014.5
20260507022006 3 302 0.0 0.0 0.00 0.00 0.00 64 1014.5
20260507021505 3 302 0.0 0.0 0.00 0.00 0.00 63 1014.5
20260507015506 5 302 0.0 0.0 0.00 0.00 0.00 59 1014.3
20260507015006 5 302 0.0 0.0 0.00 0.00 0.00 58 1014.4
20260507014505 5 302 0.0 0.0 0.00 0.00 0.00 58 1014.4
20260507014006 5 302 0.0 0.0 0.00 0.00 0.00 57 1014.4
20260507013506 5 302 0.0 0.0 0.00 0.00 0.00 56 1014.3
20260507013006 5 302 0.0 0.0 0.00 0.00 0.00 56 1014.3
20260507012506 6 302 0.0 0.0 0.00 0.00 0.00 56 1014.3
20260507012006 6 302 0.0 0.0 0.00 0.00 0.00 56 1014.3
20260507011506 6 302 0.0 0.0 0.00 0.00 0.00 55 1014.2
20260507011007 6 302 0.0 0.0 0.00 0.00 0.00 56 1014.2
20260507010505 6 302 0.0 0.0 0.00 0.00 0.00 55 1014.3
20260507010005 6 302 0.0 3.2 0.00 0.00 0.00 54 1014.3
20260507005506 6 302 0.0 3.2 0.00 0.00 0.00 56 1014.3
20260507005006 6 302 0.0 1.6 0.00 0.00 0.00 55 1014.3
20260507004506 6 302 0.0 0.0 0.00 0.00 0.00 54 1014.2
20260507004006 6 302 0.0 1.6 0.00 0.00 0.00 53 1014.2
20260507003506 6 302 0.0 4.8 0.00 0.00 0.00 54 1014.2
20260507003007 7 302 0.0 4.8 0.00 0.00 0.00 55 1014.2
20260507002506 7 302 1.6 4.8 0.00 0.00 0.00 52 1014.2
20260507002005 7 302 1.6 4.8 0.00 0.00 0.00 52 1014.2
20260507001505 7 302 0.0 4.8 0.00 0.00 0.00 52 1014.2
20260507000505 7 295 1.6 4.8 0.00 0.00 0.00 51 1014.2
20260506234506 8 317 3.2 4.8 0.00 0.00 0.00 49 1014.3
20260506234006 8 317 3.2 12.9 0.00 0.00 0.00 48 1014.3
20260506233506 8 305 4.8 16.1 0.00 0.00 0.00 47 1014.3
20260506233006 8 200 3.2 8.0 0.00 0.00 0.00 47 1014.2
20260506232506 8 323 1.6 9.7 0.00 0.00 0.00 49 1014.2
20260506232006 8 269 3.2 8.0 0.00 0.00 0.00 48 1014.2
20260506231506 8 243 3.2 12.9 0.00 0.00 0.00 49 1014.2
20260506231005 8 223 3.2 11.3 0.00 0.00 0.00 49 1014.3
20260506230506 7 299 3.2 8.0 0.00 0.00 0.00 49 1014.2
20260506225506 7 296 3.2 4.8 0.00 0.00 0.00 50 1014.2
20260506225006 7 295 3.2 8.0 0.00 0.00 0.00 49 1014.3
20260506224505 7 306 3.2 4.8 0.00 0.00 0.00 51 1014.3
20260506224006 7 305 3.2 4.8 0.00 0.00 0.00 51 1014.4
20260506223505 7 306 4.8 4.8 0.00 0.00 0.00 51 1014.4
20260506223006 7 328 1.6 12.9 0.00 0.00 0.00 51 1014.4
20260506222506 7 259 3.2 9.7 0.00 0.00 0.00 51 1014.5
20260506222005 7 240 3.2 4.8 0.00 0.00 0.00 52 1014.5
20260506221505 7 305 4.8 11.3 0.00 0.00 0.00 50 1014.6
20260506221005 7 263 3.2 8.0 0.00 0.00 0.00 51 1014.6
20260506220505 7 302 4.8 14.5 0.00 0.00 0.00 50 1014.7
20260506220005 7 219 3.2 14.5 0.00 0.00 0.00 50 1014.7
20260506215505 7 322 1.6 11.3 0.00 0.00 0.00 52 1014.7
20260506215006 7 294 3.2 11.3 0.00 0.00 0.00 52 1014.8
20260506214506 7 274 4.8 9.7 0.00 0.00 0.00 51 1014.8
20260506214005 7 337 3.2 14.5 0.00 0.00 0.00 52 1014.8
20260506213505 7 309 1.6 4.8 0.00 0.00 0.00 53 1014.9
20260506213005 7 313 4.8 14.5 0.00 0.00 0.00 51 1015.0
20260506212505 7 195 3.2 4.8 0.00 0.00 0.00 54 1014.9
20260506212006 6 263 0.0 4.8 0.00 0.00 0.00 53 1014.9
20260506211505 6 235 3.2 4.8 0.00 0.00 0.00 52 1015.1
20260506210505 6 257 3.2 14.5 0.00 0.00 0.00 51 1015.1
20260506210005 6 305 4.8 14.5 0.00 0.00 0.00 53 1015.1
20260506205505 6 296 3.2 12.9 0.00 0.00 0.00 54 1015.1
20260506205005 6 283 1.6 8.0 0.00 0.00 0.00 53 1015.2
20260506204006 6 304 4.8 19.3 0.00 0.00 0.00 53 1015.2
20260506203005 6 292 3.2 8.0 0.00 0.00 0.00 55 1015.3
20260506202505 6 287 4.8 8.0 0.00 0.00 0.00 53 1015.2
20260506202005 6 292 8.0 19.3 0.00 0.00 0.00 53 1015.3
20260506201505 6 279 4.8 11.3 0.00 0.00 0.00 54 1015.3
20260506201005 6 244 3.2 11.3 0.00 0.00 0.00 55 1015.3
20260506200005 6 265 4.8 12.9 0.00 0.00 0.00 55 1015.3
20260506195505 6 296 4.8 11.3 0.00 0.00 0.00 54 1015.3
20260506195005 6 297 3.2 11.3 0.00 0.00 0.00 54 1015.4
20260506194005 6 238 4.8 9.7 0.00 0.00 0.00 53 1015.4
20260506193505 6 279 3.2 19.3 0.00 0.00 0.00 54 1015.4
20260506193005 5 299 4.8 19.3 0.00 0.00 0.00 56 1015.3
20260506192505 5 260 4.8 4.8 0.00 0.00 0.00 52 1015.4
20260506191505 5 248 4.8 11.3 0.00 0.00 0.00 54 1015.4
20260506191006 5 219 3.2 4.8 0.00 0.00 0.00 54 1015.4
20260506190505 5 266 3.2 14.5 0.00 0.00 0.00 55 1015.5
20260506190006 5 302 3.2 14.5 0.00 0.00 0.00 54 1015.5
20260506184505 5 208 3.2 4.8 0.00 0.00 0.00 54 1015.5
20260506184006 5 265 1.6 4.8 0.00 0.00 0.00 53 1015.6
20260506183006 5 217 4.8 12.9 0.00 0.00 0.00 54 1015.5
20260506182005 5 285 1.6 4.8 0.00 0.00 0.00 53 1015.5
20260506181506 5 224 3.2 4.8 0.00 0.00 0.00 55 1015.5
20260506181005 5 229 3.2 14.5 0.00 0.00 0.00 54 1015.5
20260506180006 5 336 3.2 8.0 0.00 0.00 0.00 54 1015.5
20260506175505 5 291 6.4 19.3 0.00 0.00 0.00 54 1015.5
20260506175006 5 299 4.8 14.5 0.00 0.00 0.00 56 1015.5
20260506174506 5 310 4.8 14.5 0.00 0.00 0.00 54 1015.6
20260506174005 5 289 3.2 12.9 0.00 0.00 0.00 57 1015.6
20260506173505 5 279 3.2 14.5 0.00 0.00 0.00 56 1015.7
20260506173005 5 310 3.2 9.7 0.00 0.00 0.00 56 1015.7
20260506172505 5 291 4.8 11.3 0.00 0.00 0.00 56 1015.7
20260506172005 5 272 4.8 11.3 0.00 0.00 0.00 56 1015.8
20260506171505 5 274 1.6 4.8 0.00 0.00 0.00 57 1015.8
20260506171005 5 304 3.2 12.9 0.00 0.00 0.00 56 1015.8
20260506170505 5 306 4.8 19.3 0.00 0.00 0.00 56 1015.8
20260506170005 5 295 6.4 19.3 0.00 0.00 0.00 55 1015.8
20260506165505 5 239 4.8 8.0 0.00 0.00 0.00 56 1015.9
20260506165005 5 254 3.2 14.5 0.00 0.00 0.00 56 1015.9
20260506164505 5 279 3.2 14.5 0.00 0.00 0.00 57 1015.7
20260506164005 5 273 4.8 19.3 0.00 0.00 0.00 57 1015.7
20260506163505 5 304 4.8 14.5 0.00 0.00 0.00 56 1015.7
20260506162505 5 247 3.2 11.3 0.00 0.00 0.00 57 1015.7
20260506162005 5 305 4.8 11.3 0.00 0.00 0.00 56 1015.6
20260506161505 5 283 3.2 11.3 0.00 0.00 0.00 56 1015.7
20260506161006 5 279 4.8 11.3 0.00 0.00 0.00 56 1015.7
20260506160005 5 297 4.8 12.9 0.00 0.00 0.00 57 1015.7
20260506155006 5 231 3.2 11.3 0.00 0.00 0.00 57 1015.5
20260506154505 5 249 4.8 11.3 0.00 0.00 0.00 55 1015.5
20260506154005 5 266 4.8 12.9 0.00 0.00 0.00 56 1015.4
20260506153506 5 211 1.6 12.9 0.00 0.00 0.00 56 1015.4
20260506152506 5 298 3.2 11.3 0.00 0.00 0.00 56 1015.3
20260506152005 5 230 3.2 12.9 0.00 0.00 0.00 57 1015.3
20260506151505 5 267 3.2 12.9 0.00 0.00 0.00 57 1015.3
20260506150005 5 300 3.2 12.9 0.00 0.00 0.00 56 1015.4
20260506145505 5 251 3.2 8.0 0.00 0.00 0.00 55 1015.4
20260506145005 5 312 3.2 11.3 0.00 0.00 0.00 56 1015.4
20260506144505 5 313 3.2 4.8 0.00 0.00 0.00 57 1015.4
20260506144005 5 274 3.2 12.9 0.00 0.00 0.00 56 1015.4
20260506143505 5 296 4.8 12.9 0.00 0.00 0.00 55 1015.5
20260506142006 5 293 4.8 11.3 0.00 0.00 0.00 55 1015.4
20260506141505 5 211 3.2 11.3 0.00 0.00 0.00 55 1015.4
20260506140505 5 231 4.8 12.9 0.00 0.00 0.00 58 1015.3
20260506140006 5 315 4.8 11.3 0.00 0.00 0.00 58 1015.2
20260506135505 5 305 3.2 11.3 0.00 0.00 0.00 57 1015.2
20260506135005 5 208 3.2 8.0 0.00 0.00 0.00 58 1015.2
20260506134505 5 232 4.8 12.9 0.00 0.00 0.00 57 1015.1
20260506134006 5 294 4.8 14.5 0.00 0.00 0.00 59 1015.0
20260506133505 5 290 1.6 4.8 0.00 0.00 0.00 60 1015.0
20260506133005 4 289 3.2 4.8 0.00 0.00 0.00 60 1014.9
20260506132505 4 274 3.2 4.8 0.00 0.00 0.00 62 1014.9
20260506132005 3 290 1.6 11.3 0.00 0.00 0.00 62 1014.9
20260506131505 3 297 1.6 4.8 0.00 0.00 0.00 63 1014.9
20260506131005 3 297 3.2 4.8 0.00 0.00 0.00 64 1014.9
20260506130505 3 297 3.2 8.0 0.00 0.00 0.00 66 1014.8
20260506125005 2 297 3.2 4.8 0.00 0.00 0.00 68 1014.7
20260506124505 2 313 0.0 3.2 0.00 0.00 0.00 72 1014.7
20260506124006 2 313 1.6 4.8 0.00 0.00 0.00 73 1014.6
20260506123506 1 312 1.6 4.8 0.00 0.00 0.00 75 1014.5
20260506123005 1 312 0.0 1.6 0.00 0.00 0.00 76 1014.4
20260506122505 1 312 1.6 3.2 0.00 0.00 0.00 76 1014.3
20260506122005 0 312 0.0 1.6 0.00 0.00 0.00 77 1014.3
20260506121505 0 312 0.0 0.0 0.00 0.00 0.00 78 1014.2
20260506121005 0 312 0.0 0.0 0.00 0.00 0.00 79 1014.3
20260506120505 0 312 0.0 0.0 0.00 0.00 0.00 80 1014.3
20260506115505 0 312 0.0 0.0 0.00 0.00 0.00 82 1014.1
20260506114505 0 312 0.0 0.0 0.00 0.00 0.00 82 1013.7
20260506114005 0 312 0.0 1.6 0.00 0.00 0.00 82 1013.7
20260506113505 0 312 0.0 1.6 0.00 0.00 0.00 82 1013.7
20260506112505 0 312 0.0 0.0 0.00 0.00 0.00 81 1013.6
20260506112005 0 312 0.0 0.0 0.00 0.00 0.00 80 1013.6
20260506111505 0 312 0.0 0.0 0.00 0.00 0.00 80 1013.7
20260506111005 0 312 0.0 0.0 0.00 0.00 0.00 80 1013.7
20260506110005 0 312 0.0 0.0 0.00 0.00 0.00 80 1013.7
20260506105505 0 312 0.0 0.0 0.00 0.00 0.00 80 1013.6
20260506105005 0 312 0.0 0.0 0.00 0.00 0.00 79 1013.7
20260506104505 0 312 0.0 0.0 0.00 0.00 0.00 79 1013.6
20260506104006 0 312 0.0 0.0 0.00 0.00 0.00 79 1013.6
20260506103505 0 312 0.0 0.0 0.00 0.00 0.00 79 1013.6
20260506103006 0 312 0.0 0.0 0.00 0.00 0.00 78 1013.6
20260506102505 0 312 0.0 0.0 0.00 0.00 0.00 78 1013.4
20260506101505 0 312 0.0 0.0 0.00 0.00 0.00 77 1013.3
20260506101006 0 312 0.0 0.0 0.00 0.00 0.00 77 1013.2
20260506100005 0 312 0.0 0.0 0.00 0.00 0.00 76 1013.4
20260506095505 0 312 0.0 0.0 0.00 0.00 0.00 75 1013.2
20260506095005 0 312 0.0 0.0 0.00 0.00 0.00 75 1013.2
20260506094506 0 312 0.0 0.0 0.00 0.00 0.00 74 1013.1
20260506094005 0 312 0.0 0.0 0.00 0.00 0.00 74 1013.1
20260506093506 0 312 0.0 0.0 0.00 0.00 0.00 74 1012.9
20260506093006 1 312 0.0 1.6 0.00 0.00 0.00 74 1012.9